Location: Larrial
(48.2758°N, 4.5331°W)
Time: 17:27:32
(UTC+00:00)

NO-84 - Visible Passes

Search period start: 03 December 2021 00:00
Search period end: 13 December 2021 00:00
Orbit: 254 x 295 km, 55.0° (Epoch: 30 November)

Date Brightness Start Highest point End Pass type
(mag) Time Alt. Az. Time Alt. Az. Time Alt. Az.
04 Dec ? 18:10:58 10° S 18:11:52 16° S 18:11:52 16° S visible
05 Dec ? 18:07:41 10° SSW 18:09:20 29° S 18:09:20 29° S visible
06 Dec ? 18:03:59 10° SW 18:06:09 55° SSE 18:06:09 55° SSE visible
07 Dec ? 17:59:50 10° WSW 18:02:11 84° NNW 18:02:18 76° NE visible
08 Dec ? 17:55:10 10° WSW 17:57:27 53° NNW 17:57:49 45° NNE visible
09 Dec ? 17:49:58 10° W 17:52:08 36° NNW 17:52:42 30° NNE visible
10 Dec ? 17:44:12 10° W 17:46:15 27° NNW 17:46:58 23° NNE visible
11 Dec ? 17:37:52 10° WNW 17:39:46 22° NNW 17:40:37 18° NNE visible
12 Dec ? 17:30:55 10° WNW 17:32:40 19° NNW 17:33:40 15° NNE visible
